Regional Weather Roundup
Issued by NWS Sioux Falls, SD

Home | Current Version | Previous Version | Text Only | Print | Product List | Glossary On
Versions: 1 2 3 4 5 6 7 8 9 10 11 12 13 14 15 16 17 18 19 20 21 22 23 24 25 26 27 28 29 30 31 32 33 34 35 36 37 38 39 40 41 42 43 44 45 46 47 48 49 50
000
ASUS43 KFSD 200010
RWRFSD

WEATHER ROUNDUP FOR SE SOUTH DAKOTA/SW MINNESOTA/NW IOWA
NATIONAL WEATHER SERVICE SIOUX FALLS SD
700 PM CDT FRI SEP 19 2014

NOTE: "FAIR" INDICATES FEW OR NO CLOUDS BELOW 12,000 FEET WITH NO
SIGNIFICANT WEATHER AND OR OBSTRUCTIONS TO VISIBILITY.


SDZ038>040-050-052>070-200100-
SOUTHEAST SOUTH DAKOTA

CITY           SKY/WX    TMP DP  RH WIND       PRES   REMARKS
CHAMBERLAIN    MOCLDY    82  58  43 N3        29.73S
6HR MIN TEMP:  81; 6HR MAX TEMP:  87;

HURON          MOCLDY    81  60  48 NW6       29.68R
6HR MIN TEMP:  78; 6HR MAX TEMP:  87;

MADISON        FAIR      77  66  69 W6        29.72S
MITCHELL       MOCLDY    82  62  50 W3        29.70S
6HR MIN TEMP:  81; 6HR MAX TEMP:  88;

SIOUX FALLS    PTCLDY    83  65  54 W5        29.70S
6HR MIN TEMP:  81; 6HR MAX TEMP:  89;

WINNER         FAIR      83  56  39 NW5       29.76R
YANKTON        CLEAR     86  72  62 CALM      29.69F
$$

MNZ071-072-080-081-089-090-097-098-200100-
SOUTHWEST MINNESOTA

CITY           SKY/WX    TMP DP  RH WIND       PRES   REMARKS
FAIRMONT       PTCLDY    81  57  44 S13G21    29.71F
JACKSON        CLEAR     81  64  57 S7        29.72S
LUVERNE        PTCLDY    81  63  54 SW6       29.71S
MARSHALL       CLOUDY    75  66  73 NW9       29.68R
6HR MIN TEMP:  72; 6HR MAX TEMP:  82;

MONTEVIDEO     MOCLDY    77  66  69 W5        29.67S
PIPESTONE      PTCLDY    79  66  65 NW3       29.72S
REDWOOD FALLS  CLOUDY    80  67  64 SW6       29.66R
TRACY          MOCLDY    79  68  69 CALM      29.69S
WINDOM         PTCLDY    82  64  54 S9        29.69F
WORTHINGTON    PTCLDY    81  66  61 SW10G18   29.72S
$$

IAZ001>003-012>014-020>022-031-032-NEZ013-014-SDZ071-200100-
NORTHWEST IOWA

CITY           SKY/WX    TMP DP  RH WIND       PRES   REMARKS
CHEROKEE       CLEAR     79  71  74 S12       29.75S
DENISON        CLEAR     77  70  78 S10G20    29.77R
ESTHERVILLE    CLEAR     79  67  66 S17G23    29.72F
LE MARS        CLEAR     82  68  61 S8        29.73S
ORANGE CITY    PTCLDY    82  66  57 S10       29.73F
SHELDON        PTCLDY    81  68  65 S8        29.72S
SIOUX CITY     CLEAR     84  66  54 S7        29.74R
6HR MIN TEMP:  81; 6HR MAX TEMP:  90;

SPENCER        CLEAR     80  68  66 S13       29.74S
6HR MIN TEMP:  79; 6HR MAX TEMP:  86;

STORM LAKE     CLEAR     77  72  83 S10G18    29.78S
$$

ABBREVIATIONS USED IN REMARKS
   TC - TEMPERATURE IN CELSIUS
  WCI - WIND CHILL INDEX
   HX - HEAT INDEX
  VSB - VISIBILITY



USA.gov is the U.S. government's official web portal to all federal, state and local government web resources and services.